Location: Newark
(0.5333°S, 166.9167°E)
Time: 14:07:01
(UTC+00:00)

OTV 5 (USA 277) - Visible Passes

Search period start: 16 October 2019 00:00
Search period end: 26 October 2019 00:00
Orbit: 310 x 324 km, 54.5° (Epoch: 08 October)

Date Brightness Start Highest point End Pass type
(mag) Time Alt. Az. Time Alt. Az. Time Alt. Az.
20 Oct ? 07:32:27 10° SSE 07:33:02 12° SE 07:33:02 12° SE visible
21 Oct ? 07:45:38 10° SSW 07:48:10 65° SSE 07:48:10 65° SSE visible
22 Oct ? 08:00:43 10° WSW 08:02:47 19° WNW 08:03:21 18° NW visible
